DW2468 Weather Reports


Display with metric or nautical units.
time (UTC)temp
F
wind
direction
speed
MPH
gust
MPH
rain 1hr
in
rain 24hr
in
rain mn
in
humidity
%
barometer
mb
20260503171537 69 36 3.0 8.0 0.00 0.00 0.00 63 1012.0
20260503081521 52 225 0.0 0.0 0.00 0.01 0.00 90 1012.0
20260503071514 54 225 0.0 0.0 0.00 0.01 0.00 88 1012.0
20260503054516 57 225 1.0 3.0 0.00 0.01 0.01 84 1011.3
20260503053005 57 225 2.0 3.0 0.00 0.01 0.01 84 1011.4
20260503051504 58 225 3.0 4.0 0.00 0.01 0.01 82 1011.4
20260503050003 59 225 1.0 2.0 0.00 0.01 0.01 82 1011.4
20260503044508 59 225 0.0 2.0 0.00 0.01 0.01 81 1011.4
20260503043002 60 225 0.0 0.0 0.00 0.01 0.01 79 1011.5
20260503041502 61 225 0.0 4.0 0.00 0.01 0.01 78 1011.3
20260503040001 62 171 1.0 4.0 0.00 0.01 0.01 77 1011.1
20260503034502 63 229 3.0 6.0 0.00 0.01 0.01 76 1010.9
20260503033100 64 213 1.0 3.0 0.00 0.01 0.01 74 1010.8
20260503031600 65 221 1.0 4.0 0.00 0.01 0.01 72 1010.6
20260503030103 67 221 1.0 2.0 0.00 0.01 0.01 69 1010.7
20260503024559 69 222 2.0 5.0 0.00 0.01 0.01 67 1010.5
20260503023106 70 218 3.0 6.0 0.00 0.01 0.01 64 1010.7
20260503021601 71 219 2.0 5.0 0.00 0.01 0.01 63 1010.7
20260503020058 73 188 2.0 5.0 0.00 0.01 0.01 61 1010.8
20260503014554 75 225 1.0 7.0 0.00 0.01 0.01 54 1010.8
20260503013056 76 254 1.0 5.0 0.00 0.01 0.01 51 1010.9
20260503011612 76 234 1.0 5.0 0.00 0.01 0.01 53 1011.1
20260503010056 76 213 4.0 7.0 0.00 0.01 0.01 51 1011.2
20260503004551 76 222 4.0 7.0 0.00 0.01 0.01 54 1011.2
20260503003048 76 211 5.0 10.0 0.00 0.01 0.01 53 1011.2
20260503001548 77 213 4.0 7.0 0.00 0.01 0.01 53 1011.3
20260502234558 76 221 6.0 9.0 0.00 0.01 0.01 52 1011.4
20260502233043 76 221 1.0 9.0 0.00 0.01 0.01 54 1011.6
20260502231541 75 210 6.0 11.0 0.00 0.01 0.01 53 1011.9
20260502230038 75 203 1.0 10.0 0.00 0.01 0.01 55 1012.0
20260502224536 75 220 2.0 8.0 0.00 0.01 0.01 57 1012.2
20260502223033 74 239 2.0 8.0 0.00 0.01 0.01 57 1012.4
20260502221532 74 225 2.0 12.0 0.00 0.01 0.01 57 1012.6
20260502220028 74 248 6.0 11.0 0.00 0.01 0.01 60 1012.6
20260502214525 74 335 6.0 13.0 0.00 0.01 0.01 60 1012.8
20260502213023 73 236 5.0 11.0 0.00 0.01 0.01 60 1012.9
20260502211531 73 248 7.0 11.0 0.00 0.01 0.01 62 1013.3
20260502210021 72 210 6.0 14.0 0.00 0.01 0.01 64 1013.3
20260502204522 72 283 5.0 11.0 0.00 0.01 0.01 63 1013.5
20260502203019 72 19 6.0 12.0 0.00 0.01 0.01 64 1013.6
20260502201519 73 345 6.0 9.0 0.00 0.01 0.01 64 1013.6
20260502200018 74 250 3.0 9.0 0.00 0.01 0.01 65 1013.7
20260502194515 73 173 1.0 7.0 0.00 0.01 0.01 59 1013.7
20260502193012 72 269 3.0 7.0 0.00 0.01 0.01 59 1014.0
20260502191509 72 11 4.0 7.0 0.00 0.01 0.01 64 1013.9
20260502190005 71 326 1.0 11.0 0.00 0.01 0.01 66 1013.9
20260502184502 70 340 4.0 11.0 0.00 0.01 0.01 65 1013.9
20260502183001 69 27 3.0 9.0 0.00 0.01 0.01 68 1014.1
20260502181604 69 5 6.0 10.0 0.00 0.01 0.01 65 1014.3